Regional Weather Roundup
Issued by NWS

Home | Current Version | Previous Version | Graphics & Text | Print | Product List | Glossary On
Versions: 1 2 3 4 5 6 7 8 9 10 11 12 13 14 15 16 17 18 19 20 21 22 23 24 25 26 27 28 29 30 31 32 33 34 35 36 37 38 39 40 41 42 43 44 45 46 47 48 49 50
000
ASUS43 KMPX 221110
RWRMN
WEATHER ROUNDUP FOR MINNESOTA
NATIONAL WEATHER SERVICE TWIN CITIES/CHANHASSEN MN
600 AM CDT FRI MAY 22 2015


NOTE: "FAIR" INDICATES FEW OR NO CLOUDS BELOW 12,000 FEET WITH NO
SIGNIFICANT WEATHER AND/OR OBSTRUCTIONS TO VISIBILITY. N/A MEANS
CURRENT SKY AND/OR WEATHER CONDITIONS ARE NOT AVAILABLE.

MNZ060>063-068>070-221200-
   Twin Cities Metro

CITY           SKY/WX    TMP DP  RH WIND       PRES   REMARKS
TWIN CITIES    CLEAR     50  36  58 CALM      30.17R
ST PAUL        CLEAR     46  38  73 CALM      30.17R
CRYSTAL        CLEAR     42  36  79 CALM      30.17R
BLAINE         CLEAR     39  37  93 CALM      30.17R
LAKEVILLE      CLEAR     39  37  93 CALM      30.17R
EDEN PRAIRIE   CLEAR     43  37  79 CALM      30.16R
SOUTH ST PAUL  CLEAR     45  36  70 CALM      30.17R
LAKE ELMO      FAIR      39  36  87 CALM      30.17R
$$
MNZ001>005-007-008-013>017-022>024-027-028-221200-
   Northwest Minnesota

CITY           SKY/WX    TMP DP  RH WIND       PRES   REMARKS
BEMIDJI        CLEAR     32  31  94 W3        30.17R
HALLOCK        CLEAR     41  37  87 SE8       30.15S
ROSEAU         CLEAR     39  34  81 S3        30.16S
WARROAD        CLEAR     37  34  87 CALM      30.17R
THIEF RVR FALL CLEAR     39  36  87 CALM      30.18R
CROOKSTON      CLEAR     43  36  75 S3        30.18S
FOSSTON        CLEAR     34  30  86 CALM      30.18S
DETROIT LAKES  CLEAR     43  41  93 CALM      30.19R
MOORHEAD       CLEAR     45  39  81 CALM      30.18R
PARK RAPIDS    FAIR      40  36  86 CALM      30.17R
MAHNOMEN       FAIR      39  37  92 CALM      30.18R
$$
MNZ006-009>011-018-025>026-221200-
   North Central Minnesota

CITY           SKY/WX    TMP DP  RH WIND       PRES   REMARKS
BAUDETTE       CLEAR     37  35  92 CALM      30.16R
FLAG ISLAND    CLEAR     46  43  87 CALM      30.14S
INTL FALLS     CLEAR     31  29  92 CALM      30.16R
WASKISH        CLEAR     37  37 100 CALM      30.18R
BIG FORK       CLEAR     30  28  93 CALM      30.18R
LONGVILLE      CLEAR     34  34 100 CALM      30.17R
GRAND RAPIDS   CLEAR     34  30  86 CALM      30.17S
CRANE LAKE     CLEAR     27  27 100 CALM      30.19R
ORR            CLEAR     32  30  93 CALM      30.15R
COOK           CLEAR     28  28 100 CALM      30.18R
WALKER         FAIR      35  34  97 CALM      30.17R
$$
MNZ012-019>021-037-221200-
   Northeast Minnesota

CITY           SKY/WX    TMP DP  RH WIND       PRES   REMARKS
DULUTH         CLEAR     38  32  79 CALM      30.17R
ELY            CLEAR     30  27  86 CALM      30.17R
HIBBING        CLEAR     30  27  88 CALM      30.17R
EVELETH        CLEAR     30  30 100 CALM      30.18R
DULUTH HARBOR  CLEAR     43  37  81 CALM      30.19R
TWO HARBORS    CLEAR     36  30  80 CALM      30.16R
SILVER BAY     CLEAR     32  28  86 CALM      30.16R
GRAND MARAIS     N/A     33  27  78 N5        30.19R WCI  29
G MARAIS ARPRT CLEAR     28  21  74 CALM      30.17R
$$
MNZ029>031-032-039>041-046>048-054>057-064-221200-
   West Central Minnesota

CITY           SKY/WX    TMP DP  RH WIND       PRES   REMARKS
FERGUS FALLS   CLEAR     46  37  71 NE3       30.19R
WHEATON        CLEAR     43  41  93 CALM      30.20R
MORRIS         CLEAR     43  39  87 CALM      30.17R
ALEXANDRIA     CLEAR     41  38  89 CALM      30.19R
ELBOW LAKE     FAIR      45  42  90 CALM      30.17R
WADENA         CLEAR     37  36  93 CALM      30.17R
GLENWOOD       CLEAR     46  39  76 NE5       30.18R
APPLETON       CLEAR     43  39  87 CALM      30.18R
BENSON         CLEAR     41  39  93 CALM      30.18R
ORTONVILLE     CLEAR     45  37  76 W5        30.18R
MADISON        CLEAR     43  36  75 W5        30.19R
WILLMAR        FAIR      45  39  81 CALM      30.19R
$$
MNZ033>034-036-042>043-049>051-058-059-221200-
   Central Minnesota

CITY           SKY/WX    TMP DP  RH WIND       PRES   REMARKS
ST CLOUD       CLEAR     37  36  96 CALM      30.18R
SAUK CENTRE    FAIR      40  39  97 CALM      30.18S
PAYNESVILLE    CLEAR     36  36 100 CALM      30.18S
AITKIN           N/A     36  30  80 CALM      30.17R HAZE
PINE RIVER     CLEAR     34  34 100 CALM      30.21R
BRAINERD       FAIR      35  34  96 CALM      30.18R
STAPLES        CLEAR     37  36  93 CALM      30.18R
LONG PRAIRIE   FAIR      37  36  93 CALM      30.18R
LITTLE FALLS   CLEAR     36  36 100 CALM      30.18S
LITCHFIELD     CLEAR     46  41  81 CALM      30.18R
BUFFALO        CLEAR     42  38  84 CALM      30.19R
MAPLE LAKE     CLEAR     40  39  96 CALM      30.19R
$$
MNZ037-044-045-052-053-221200-
   East Central Minnesota

CITY           SKY/WX    TMP DP  RH WIND       PRES   REMARKS
PRINCETON      CLEAR     39  36  87 CALM      30.18R
MORA           CLEAR     36  32  87 CALM      30.19R
CAMBRIDGE      CLEAR     41  34  75 CALM      30.17R
RUSH CITY      CLEAR     37  33  87 CALM      30.18R
MOOSE LAKE     CLEAR     32  32 100 CALM      30.16S
HINCKLEY       FAIR      34  34 100 CALM      30.18R
CLOQUET        CLEAR     34  28  80 NW5       30.17S WCI  30
MCGREGOR       CLEAR     36  34  93 CALM      30.18R
$$
MNZ071>073-080-081-089-090-097-098-221200-
   Southwest Minnesota

CITY           SKY/WX    TMP DP  RH WIND       PRES   REMARKS
MONTEVIDEO     CLEAR     45  36  70 CALM      30.19R
GRANITE FALLS  CLEAR     40  35  80 W3        30.20R
CANBY          FAIR      44  36  72 W3        30.19S
MARSHALL       CLEAR     45  34  65 W5        30.18S
REDWOOD FALLS  CLEAR     44  37  76 W5        30.18R
OLIVIA         CLEAR     37  32  81 CALM      30.17R
PIPESTONE      CLEAR     43  34  70 E1        30.18S
WINDOM         FAIR      41  34  75 CALM      30.19S
WORTHINGTON    CLEAR     41  30  65 CALM      30.19S
JACKSON        CLEAR     45  32  61 W6        30.19S
TRACY          CLEAR     48  36  63 W7        30.19S
SLAYTON        CLEAR     45  34  66 CALM      30.19F
$$
MNZ065>067-074>077-082>085-091>093-221200-
   South Central Minnesota

CITY           SKY/WX    TMP DP  RH WIND       PRES   REMARKS
MANKATO        CLEAR     45  36  70 CALM      30.17R
NEW ULM        CLEAR     45  36  70 CALM      30.17S
ST JAMES       CLEAR     45  36  70 W3        30.19R
FAIRMONT       CLEAR     46  30  53 W5        30.17S
GLENCOE        CLEAR     43  40  91 CALM      30.17R
FARIBAULT      CLEAR     39  39 100 CALM      30.17R
OWATONNA       CLEAR     39  36  87 CALM      30.17R
WASECA         CLEAR     39  34  81 CALM      30.18R
ALBERT LEA     CLEAR     43  39  87 CALM      30.17R
$$
MNZ078>079-086>088-094>096-221200-
   Southeast Minnesota

CITY           SKY/WX    TMP DP  RH WIND       PRES   REMARKS
ROCHESTER      CLEAR     47  33  58 NW8       30.17R
RED WING       CLEAR     41  37  87 CALM      30.16R
STANTON        CLEAR     40  35  85 CALM      30.15S
DODGE CENTER   CLEAR     46  34  61 CALM      30.16R
WINONA         CLEAR     41  37  87 NW3       30.16R
AUSTIN         CLEAR     43  37  81 CALM      30.16R
PRESTON        CLEAR     47  33  58 NW6       30.16R
$$
ABBREVIATIONS USED IN REMARKS
   TC - TEMPERATURES IN CELSIUS
  WCI - WIND CHILL INDEX
   HX - HEAT INDEX
  VSB - VISIBILITY
$$


USA.gov is the U.S. government's official web portal to all federal, state and local government web resources and services.